Bornholm Airport

Airport
ICAO code: 
EKRN
IATA Code: 
RNN
Summary
ICAO Region: 
EUR
Territory: 
Location: 
Rønne, Bornholm, Hovedstaden
Serving: 
Bornholm
Elevation: 
52 ft
Coordinates: 
Aerial View: 
55° 3' 47.186" N, 14° 45' 36.691" E
Metar
Observation
EKRN 031620Z 24023KT 9999 BKN014 BKN020 04/02 Q1000
Station
Roenne
Date/Time
2021-12-03 16:20:00
Wind direction
240°
Wind speed
23 kts
Lowest cloud amount
broken clouds
Temperature
4°C
Dew point
2°C
Humidity
86%
QNH
1000 hPa
Weather condition
n/a

Description

Bornholm Airport is a Danish airport located 5 km southeast of Rønne, on the island of Bornholm.

Runways

Designator Length Width Surface Rops
11/29 2002 45 ASP No/No
Airport map: 
Aerial View: 

Accidents and Serious Incidents at or in the vicinity of EKRN

SKYbrary Partners:

Safety knowledge contributed by: